This demonstration page uses our WeatherBlox Daily Observations layout. Learn more.

Left ArrowRight Arrow

Hourly Observations for July 3, 2019

Temp ( °F °C ) Dew Point ( °F °C ) Humidity (%) Winds ( mph kmh ) Pressure ( in mb ) Visibility ( mi km ) Precip ( " mm )
12:53 am 00:53 Cloudy 57 13.9 48 8.9 72 72 Calm 29.98 1015 10 16 0.00 0.00
1:53 am 01:53 Cloudy 55 12.8 51 10.6 87 87 Calm 29.97 1015 10 16 0.00 0.00
2:53 am 02:53 Cloudy 54 12.2 52 11.1 93 93 W 3 6 29.98 1015 10 16 0.00 0.00
3:53 am 03:53 Cloudy 54 12.2 49 9.4 83 83 Calm 29.96 1015 10 16 0.00 0.00
4:53 am 04:53 Cloudy with Light Rain 54 12.2 48 8.9 80 80 Calm 29.96 1015 10 16 0.00 0.03
5:53 am 05:53 Cloudy with Light Rain 53 11.7 51 10.6 93 93 Calm 29.96 1015 9 14 0.01 0.25
6:53 am 06:53 Cloudy with Light Rain 54 12.2 52 11.1 93 93 Calm 29.96 1015 10 16 0.02 0.51
7:53 am 07:53 Cloudy 55 12.8 51 10.6 87 87 Calm 29.96 1015 10 16 0.00 0.03
8:53 am 08:53 Cloudy with Light Rain 56 13.3 52 11.1 87 87 Calm 29.96 1015 10 16 0.00 0.03
9:53 am 09:53 Cloudy 58 14.4 52 11.1 81 81 NNW 3 6 29.97 1015 10 16 0.01 0.25
10:53 am 10:53 Cloudy 59 15 50 10 72 72 Calm 29.97 1015 10 16 0.00 0.00
11:53 am 11:53 Cloudy with Light Rain 58 14.4 52 11.1 81 81 NNW 3 6 29.97 1015 5 8 0.01 0.25
12:20 pm 12:20 Cloudy with Light Rain 57 13.9 53 11.7 87 87 NNW 3 6 29.94 1014 4 6 0.02 0.51
12:53 pm 12:53 Cloudy with Light Rain 58 14.4 52 11.1 81 81 NE 3 6 29.97 1015 6 10 0.03 0.76
1:53 pm 13:53 Cloudy 58 14.4 52 11.1 81 81 Calm 29.97 1015 10 16 0.00 0.03
2:53 pm 14:53 Cloudy 60 15.6 51 10.6 72 72 Calm 29.96 1015 10 16 0.00 0.00
3:43 pm 15:43 Cloudy 61 16 52 11 72 72 N 5 7 29.90 1013 10 16 0.00 0.00
3:53 pm 15:53 Cloudy 61 16.1 51 10.6 70 70 N 3 6 29.96 1015 10 16 0.00 0.00
4:53 pm 16:53 Cloudy 61 16.1 51 10.6 70 70 Calm 29.95 1014 10 16 0.00 0.00
5:27 pm 17:27 Cloudy 61 16.1 51 10.6 70 70 Calm 29.90 1012 10 16 0.00 0.00
5:53 pm 17:53 Cloudy 62 16.7 51 10.6 67 67 Calm 29.95 1014 10 16 0.00 0.00
6:16 pm 18:16 Cloudy 62 16.7 51 10.6 67 67 ESE 3 6 29.89 1012 10 16 0.00 0.00
6:53 pm 18:53 Cloudy 64 17.8 51 10.6 63 63 VRB 3 6 29.95 1014 10 16 0.00 0.00
7:53 pm 19:53 Mostly Cloudy 63 17.2 52 11.1 68 68 ENE 5 7 29.95 1014 10 16 0.00 0.00
8:53 pm 20:53 Sunny 59 15 52 11.1 78 78 E 6 9 29.96 1015 10 16 0.00 0.00
9:53 pm 21:53 Clear 55 12.8 51 10.6 87 87 E 6 9 29.98 1015 10 16 0.00 0.00
10:53 pm 22:53 Clear 53 11.7 51 10.6 93 93 E 5 7 29.98 1015 10 16 0.00 0.00
11:53 pm 23:53 Clear 52 11.1 50 10 93 93 ESE 5 7 29.98 1015 10 16 0.00 0.00

Powered by AerisWeather